Stations météo

Publicité
Cap Bear, France (7749): Température de l'air & dewpoint: 19.03.2019 12:00:00 - 25.03.2019 12:00:00 (CET)Cap Bear, France (7749): Vitesse du vent & gusts: 19.03.2019 12:00:00 - 25.03.2019 12:00:00 (CET)Cap Bear, France (7749): Direction du vent: 19.03.2019 12:00:00 - 25.03.2019 12:00:00 (CET)Cap Bear, France (7749): reduced air pressure: 19.03.2019 12:00:00 - 25.03.2019 12:00:00 (CET)Cap Bear, France (7749): visibility: 19.03.2019 12:00:00 - 25.03.2019 12:00:00 (CET)Cap Bear, France (7749): Quantités de précipitations: 19.03.2019 12:00:00 - 25.03.2019 12:00:00 (CET)
Date & Time tt [°C] td [°C] ff [km/h] ff [knt] fx [km/h] fx [knt] dd ppp [hPa] vv [km] rr [mm]
25.03.2019 12:00:00 15,3 6,8 71 38 85 46 NNW 1018,8 - 0,0
25.03.2019 11:00:00 15,7 7,7 49 27 75 41 NNW 1020,0 - 0,0
25.03.2019 10:00:00 15,5 6,8 58 32 69 37 NNW 1020,2 - 0,0
25.03.2019 09:00:00 14,9 3,1 51 28 75 40 NNW 1020,2 - 0,0
25.03.2019 08:00:00 14,6 2,5 48 26 64 35 NW 1019,8 - 0,0
25.03.2019 07:00:00 14,3 2,2 36 19 66 36 NW 1020,3 20 0,0
25.03.2019 06:00:00 14,5 2,7 48 26 71 38 NW 1020,0 - 0,0
25.03.2019 05:00:00 14,8 4,5 53 29 64 34 NW 1019,8 - 0,0
25.03.2019 04:00:00 15,5 2,6 37 20 49 26 NW 1020,6 20 0,0
25.03.2019 03:00:00 15,7 2,5 37 20 61 33 NW 1021,0 - 0,0
25.03.2019 02:00:00 15,9 3,3 50 27 58 31 NNW 1020,7 - 0,0
25.03.2019 01:00:00 16,8 2,8 42 23 68 37 NW 1020,7 - 0,0
25.03.2019 00:00:00 17,8 2,1 37 20 66 36 NW 1020,8 - 0,0
24.03.2019 23:00:00 18,3 1,7 36 20 58 31 NW 1021,1 - 0,0
24.03.2019 22:00:00 18,7 0,8 34 18 54 29 NW 1021,1 - 0,0
24.03.2019 21:00:00 19,4 1,4 31 17 49 26 NW 1021,2 - 0,0
24.03.2019 20:00:00 19,3 2,6 27 15 32 18 NW 1021,0 - 0,0
24.03.2019 19:00:00 18,5 1,9 6 3 14 7 NW 1020,9 20 0,0
24.03.2019 18:00:00 17,2 3,8 11 6 17 9 S 1020,8 - 0,0
24.03.2019 17:00:00 17,1 3,4 9 5 16 9 S 1020,9 - 0,0
24.03.2019 16:00:00 17,3 6,8 8 5 15 8 SSE 1021,2 20 0,0
24.03.2019 15:00:00 18,0 4,9 10 5 16 9 S 1021,7 - 0,0
24.03.2019 14:00:00 18,4 6,6 4 2 13 7 SE 1022,5 - 0,0
24.03.2019 13:00:00 18,0 6,5 5 3 18 10 N 1023,2 25 0,0
24.03.2019 12:00:00 16,0 8,0 8 4 22 12 N 1023,8 - 0,0
24.03.2019 11:00:00 15,9 7,4 12 7 20 11 NNE 1023,8 - 0,0
24.03.2019 10:00:00 15,4 5,6 16 9 34 19 NNW 1023,8 - 0,0
24.03.2019 09:00:00 15,3 3,1 27 14 32 17 NNW 1023,4 - 0,0
24.03.2019 08:00:00 11,4 3,9 21 12 24 13 NNW 1023,6 - 0,0
24.03.2019 07:00:00 13,5 2,4 16 9 21 12 NNW 1023,2 25 0,0
24.03.2019 06:00:00 16,2 0,3 18 10 31 17 NW 1022,9 - 0,0
24.03.2019 05:00:00 16,5 0,6 22 12 29 16 NW 1022,9 - 0,0
24.03.2019 04:00:00 16,8 1,2 24 13 29 16 NW 1022,8 20 0,0
24.03.2019 03:00:00 18,2 1,2 22 12 46 25 NW 1023,1 - 0,0
24.03.2019 02:00:00 17,5 0,6 30 16 43 23 NW 1023,3 - 0,0
24.03.2019 01:00:00 17,1 3,4 33 18 47 25 NW 1023,1 - 0,0
24.03.2019 00:00:00 18,2 2,5 31 17 48 26 NW 1022,9 - 0,0
23.03.2019 23:00:00 19,1 2,4 31 17 44 24 NW 1023,1 - 0,0
23.03.2019 22:00:00 19,1 2,4 28 15 38 21 NW 1023,2 - 0,0
23.03.2019 21:00:00 19,0 1,0 9 5 16 9 NW 1023,3 - 0,0
23.03.2019 20:00:00 20,6 1,4 4 2 9 5 NNW 1022,6 - 0,0
23.03.2019 19:00:00 19,7 1,6 10 5 12 7 S 1022,3 30 0,0
23.03.2019 18:00:00 20,4 2,7 8 4 9 5 SSW 1022,1 - 0,0
23.03.2019 17:00:00 20,5 4,1 3 2 13 7 S 1022,3 20 0,0
23.03.2019 16:00:00 20,3 5,1 6 3 16 9 SSE 1022,9 - 0,0
23.03.2019 15:00:00 20,1 4,9 8 4 21 11 NNE 1023,5 - 0,0
23.03.2019 14:00:00 19,4 6,1 12 6 23 13 NNE 1024,0 - 0,0
23.03.2019 13:00:00 19,0 6,1 18 10 22 12 NNE 1024,7 - 0,0
23.03.2019 12:00:00 20,1 6,1 21 12 32 18 N 1025,4 - 0,0
23.03.2019 11:00:00 19,7 5,0 26 14 34 18 NW 1025,6 - 0,0
23.03.2019 10:00:00 17,1 4,1 30 16 39 21 NW 1026,1 20 0,0
23.03.2019 09:00:00 14,4 2,3 32 17 36 19 NNW 1025,9 - 0,0
23.03.2019 08:00:00 12,6 5,0 27 14 46 25 NW 1025,8 - 0,0
23.03.2019 07:00:00 15,9 3,0 32 17 44 24 NW 1025,4 18 0,0
23.03.2019 06:00:00 16,4 2,4 33 18 46 25 WNW 1025,2 - 0,0
23.03.2019 05:00:00 16,4 1,7 31 17 46 25 WNW 1025,2 - 0,0
23.03.2019 04:00:00 13,1 2,6 32 17 41 22 NW 1025,8 18 0,0
23.03.2019 03:00:00 14,8 1,3 20 11 26 14 NW 1026,0 - 0,0
23.03.2019 02:00:00 12,6 -0,3 4 2 8 5 WNW 1026,6 - 0,0
23.03.2019 01:00:00 13,7 -0,4 5 3 16 9 SSE 1026,5 - 0,0
23.03.2019 00:00:00 12,6 5,3 12 7 18 10 S 1027,1 - 0,0
22.03.2019 23:00:00 13,0 4,2 9 5 18 10 SSE 1027,1 - 0,0
22.03.2019 22:00:00 14,1 2,9 17 9 21 11 NW 1027,0 - 0,0
22.03.2019 21:00:00 11,7 5,3 13 7 16 9 NW 1026,9 - 0,0
22.03.2019 20:00:00 12,7 10,2 10 5 27 15 S 1026,5 - 0,0
22.03.2019 19:00:00 13,2 10,0 13 7 26 14 S 1026,3 - 0,0
22.03.2019 18:00:00 13,6 8,8 18 10 24 13 SSE 1026,1 - 0,0
22.03.2019 17:00:00 14,0 7,5 16 9 19 10 SSE 1026,3 - 0,0
22.03.2019 16:00:00 16,8 4,5 9 5 25 13 SSE 1026,6 20 0,0
22.03.2019 15:00:00 17,7 1,6 10 6 16 9 SE 1027,2 - 0,0
22.03.2019 14:00:00 15,7 1,8 4 2 11 6 ENE 1028,2 - 0,0
22.03.2019 13:00:00 15,0 2,5 10 6 20 11 N 1029,0 - 0,0
22.03.2019 12:00:00 15,1 1,2 12 7 22 12 NNW 1029,3 - 0,0
22.03.2019 11:00:00 14,7 1,6 13 7 28 15 NNW 1029,5 - 0,0
22.03.2019 10:00:00 13,6 2,5 25 13 36 19 NNW 1029,2 - 0,0
22.03.2019 09:00:00 12,6 3,8 19 11 29 16 NNW 1028,9 - 0,0
22.03.2019 08:00:00 12,4 0,2 22 12 28 15 NW 1028,6 - 0,0
22.03.2019 07:00:00 11,1 -0,1 26 14 32 18 NW 1028,3 - 0,0
22.03.2019 06:00:00 10,7 2,3 24 13 36 20 NW 1027,8 - 0,0
22.03.2019 05:00:00 10,5 -0,1 29 15 43 23 NW 1027,7 - 0,0
22.03.2019 04:00:00 10,3 0,0 31 17 43 23 NW 1027,7 - 0,0
22.03.2019 03:00:00 9,6 1,0 17 9 23 12 NW 1027,8 - 0,0
22.03.2019 02:00:00 10,9 -0,3 11 6 18 10 NNW 1028,1 - 0,0
22.03.2019 01:00:00 10,7 2,8 3 2 10 5 SSW 1028,2 - 0,0
22.03.2019 00:00:00 11,8 -1,4 6 4 11 6 SSW 1028,3 - 0,0
21.03.2019 23:00:00 10,3 3,1 4 2 17 9 WNW 1028,5 - 0,0
21.03.2019 22:00:00 11,6 -1,2 11 6 16 9 NW 1028,2 - 0,0
21.03.2019 21:00:00 11,9 -2,0 11 6 14 8 NW 1028,0 - 0,0
21.03.2019 20:00:00 12,8 -2,7 7 4 8 5 NW 1027,7 - 0,0
21.03.2019 19:00:00 12,9 -3,4 3 1 6 3 NW 1027,5 - 0,0
21.03.2019 18:00:00 13,9 -1,3 3 2 9 5 NW 1027,2 - 0,0
21.03.2019 17:00:00 12,8 -1,5 4 2 13 7 SSE 1027,4 - 0,0
21.03.2019 16:00:00 12,8 4,0 8 5 17 9 S 1027,8 - 0,0
21.03.2019 15:00:00 13,2 4,6 8 4 14 8 SSE 1028,2 - 0,0
21.03.2019 14:00:00 12,5 3,7 7 4 17 9 E 1029,0 - 0,0
21.03.2019 13:00:00 14,8 3,3 14 8 29 16 NE 1029,5 - 0,0
21.03.2019 12:00:00 14,2 3,9 22 12 30 16 NE 1029,6 - 0,0
21.03.2019 11:00:00 12,4 3,1 24 13 32 18 NNW 1029,5 - 0,0
21.03.2019 10:00:00 13,5 1,8 25 14 35 19 N 1029,4 - 0,0
21.03.2019 09:00:00 11,5 0,6 29 16 37 20 NW 1029,1 - 0,0
21.03.2019 08:00:00 9,7 -0,8 26 14 35 19 NW 1029,0 - 0,0
21.03.2019 07:00:00 9,5 1,1 26 14 31 17 NW 1028,4 - 0,0
21.03.2019 06:00:00 9,7 1,3 24 13 37 20 NNW 1028,2 - 0,0
21.03.2019 05:00:00 10,3 -0,5 27 14 46 25 NW 1028,1 - 0,0
21.03.2019 04:00:00 10,4 -1,7 29 16 46 25 NW 1027,8 18 0,0
21.03.2019 03:00:00 10,4 -0,4 36 19 50 27 NW 1028,2 - 0,0
21.03.2019 02:00:00 10,6 -0,9 35 19 44 24 NW 1028,8 - 0,0
21.03.2019 01:00:00 10,9 -1,2 33 18 49 26 NW 1028,7 - 0,0
21.03.2019 00:00:00 11,5 -1,3 40 21 57 31 NW 1028,9 - 0,0
20.03.2019 23:00:00 12,1 -1,8 39 21 62 34 NW 1028,5 - 0,0
20.03.2019 22:00:00 11,9 -1,3 40 22 64 35 NW 1028,4 - 0,0
20.03.2019 21:00:00 12,0 -1,2 35 19 58 32 NW 1028,4 - 0,0
20.03.2019 20:00:00 12,3 -0,9 31 17 56 30 NW 1028,1 - 0,0
20.03.2019 19:00:00 13,2 0,2 52 28 64 35 NW 1027,1 20 0,0
20.03.2019 18:00:00 13,6 1,2 45 24 56 30 NNW 1026,7 - 0,0
20.03.2019 17:00:00 13,7 2,3 44 24 50 27 NNW 1026,5 - 0,0
20.03.2019 16:00:00 13,7 4,8 30 16 45 25 N 1027,0 - 0,0
20.03.2019 15:00:00 13,7 2,6 39 21 48 26 NNE 1027,2 - 0,0
20.03.2019 14:00:00 13,8 1,4 35 19 45 25 N 1028,2 - 0,0
20.03.2019 13:00:00 14,4 1,0 39 21 56 30 N 1028,6 25 0,0
20.03.2019 12:00:00 12,7 0,1 49 26 60 33 N 1029,0 - 0,0
20.03.2019 11:00:00 12,1 1,7 48 26 64 35 N 1028,9 - 0,0
20.03.2019 10:00:00 11,2 1,7 49 27 64 35 NNW 1029,0 - 0,0
20.03.2019 09:00:00 9,8 1,2 49 26 59 32 NW 1028,9 - 0,0
20.03.2019 08:00:00 8,9 2,2 41 22 60 33 NW 1028,5 - 0,0
20.03.2019 07:00:00 8,2 1,3 39 21 65 35 NW 1027,8 20 0,0
20.03.2019 06:00:00 8,0 1,6 42 23 64 35 NW 1027,3 - 0,0
20.03.2019 05:00:00 8,7 2,7 51 28 71 38 NW 1027,1 - 0,0
20.03.2019 04:00:00 9,5 3,7 55 30 71 38 NNW 1026,5 20 0,0
20.03.2019 03:00:00 9,8 3,5 61 33 74 40 NNW 1026,7 - 0,0
20.03.2019 02:00:00 9,9 3,8 59 32 70 38 NNW 1026,8 - 0,0
20.03.2019 01:00:00 9,7 3,9 59 32 74 40 NNW 1026,7 - 0,0
20.03.2019 00:00:00 9,6 3,1 56 31 73 40 NW 1026,9 - 0,0
19.03.2019 23:00:00 9,8 3,1 56 31 77 42 NW 1026,6 - 0,0
19.03.2019 22:00:00 10,0 3,0 55 30 80 43 NW 1026,1 - 0,0
19.03.2019 21:00:00 9,9 3,0 44 24 78 42 NW 1025,8 - 0,0
19.03.2019 20:00:00 10,0 2,8 43 23 71 38 NW 1025,4 - 0,0
19.03.2019 19:00:00 10,6 3,1 47 26 81 44 NW 1024,7 25 0,0
19.03.2019 18:00:00 11,2 2,7 50 27 82 45 NW 1024,0 - 0,0
19.03.2019 17:00:00 11,8 3,3 55 30 78 42 NW 1023,1 - 0,0
19.03.2019 16:00:00 12,1 2,8 61 33 77 41 NW 1022,9 - 0,0
19.03.2019 15:00:00 12,1 2,3 66 36 77 42 NNW 1022,8 - 0,0
19.03.2019 14:00:00 11,5 3,0 63 34 85 46 NNW 1023,2 - 0,0
19.03.2019 13:00:00 11,5 4,2 66 36 81 44 NNW 1022,9 25 0,0
19.03.2019 12:00:00 10,7 3,9 68 37 83 45 NNW 1023,0 - 0,0

tt = Température de l'air
td = dewpoint
ff = Vitesse du vent
fx = gusts
dd = Direction du vent
ppp = reduced air pressure
vv = visibility
rr = Quantités de précipitations

stations d'obs. à proximité